Time,TemperatureF,DewpointF,PressureIn,WindDirection,WindDirectionDegrees,WindSpeedMPH,WindSpeedGustMPH,Humidity,HourlyPrecipIn,Conditions,Clouds,dailyrainin,SoftwareType,DateUTC
2013-03-18 00:03:00,64.0,57.0,30.09,ESE,116,4.0,6.0,76,-99.99,,,-99.99,,2013-03-18 04:03:00,
2013-03-18 00:13:00,64.0,57.0,30.09,ESE,116,4.0,6.0,76,-99.99,,,-99.99,,2013-03-18 04:13:00,
2013-03-18 00:23:00,64.0,57.0,30.09,East,92,3.0,5.0,76,-99.99,,,-99.99,,2013-03-18 04:23:00,
2013-03-18 00:33:00,64.0,57.0,30.09,East,96,3.0,4.0,76,-99.99,,,-99.99,,2013-03-18 04:33:00,
2013-03-18 00:42:00,64.0,57.0,30.09,East,96,3.0,4.0,76,-99.99,,,-99.99,,2013-03-18 04:42:00,
2013-03-18 00:53:00,64.0,57.0,30.08,ESE,114,5.0,7.0,77,-99.99,,,-99.99,,2013-03-18 04:53:00,
2013-03-18 01:03:00,64.0,57.0,30.08,ESE,114,5.0,7.0,77,-99.99,,,-99.99,,2013-03-18 05:03:00,
2013-03-18 01:12:00,65.0,57.0,30.08,SE,126,6.0,9.0,75,-99.99,,,-99.99,,2013-03-18 05:12:00,
2013-03-18 01:22:00,65.0,57.0,30.08,SE,126,6.0,9.0,75,-99.99,,,-99.99,,2013-03-18 05:22:00,
2013-03-18 01:32:00,65.0,57.0,30.08,SE,126,6.0,9.0,75,-99.99,,,-99.99,,2013-03-18 05:32:00,
2013-03-18 01:43:00,65.0,57.0,30.07,SE,127,6.0,9.0,74,-99.99,,,-99.99,,2013-03-18 05:43:00,
2013-03-18 01:52:00,65.0,57.0,30.06,SE,132,4.0,6.0,74,-99.99,,,-99.99,,2013-03-18 05:52:00,
2013-03-18 02:02:00,65.0,57.0,30.06,SE,144,4.0,7.0,76,-99.99,,,-99.99,,2013-03-18 06:02:00,
2013-03-18 02:12:00,65.0,57.0,30.06,SE,144,4.0,7.0,76,-99.99,,,-99.99,,2013-03-18 06:12:00,
2013-03-18 02:22:00,64.0,57.0,30.07,SSE,154,6.0,11.0,77,-99.99,,,-99.99,,2013-03-18 06:22:00,
2013-03-18 02:32:00,64.0,57.0,30.06,SSE,154,6.0,9.0,77,-99.99,,,-99.99,,2013-03-18 06:32:00,
2013-03-18 02:42:00,64.0,57.0,30.06,SSE,154,6.0,9.0,77,-99.99,,,-99.99,,2013-03-18 06:42:00,
2013-03-18 02:53:00,64.0,57.0,30.05,SSE,153,8.0,16.0,77,-99.99,,,-99.99,,2013-03-18 06:53:00,
2013-03-18 03:02:00,65.0,57.0,30.03,SSE,153,7.0,12.0,76,-99.99,,,-99.99,,2013-03-18 07:02:00,
2013-03-18 03:13:00,65.0,57.0,30.03,SSE,153,7.0,12.0,76,-99.99,,,-99.99,,2013-03-18 07:13:00,
2013-03-18 03:23:00,65.0,57.0,30.03,SSE,151,8.0,12.0,73,-99.99,,,-99.99,,2013-03-18 07:23:00,
2013-03-18 03:33:00,66.0,57.0,30.02,SE,137,7.0,12.0,72,-99.99,,,-99.99,,2013-03-18 07:33:00,
2013-03-18 03:42:00,66.0,57.0,30.02,SE,137,7.0,12.0,72,-99.99,,,-99.99,,2013-03-18 07:42:00,
2013-03-18 03:53:00,66.0,57.0,30.03,SSE,164,6.0,10.0,73,-99.99,,,-99.99,,2013-03-18 07:53:00,
2013-03-18 04:02:00,65.0,57.0,30.03,SSW,193,4.0,9.0,74,-99.99,,,-99.99,,2013-03-18 08:02:00,
2013-03-18 04:12:00,65.0,57.0,30.04,SSW,197,4.0,8.0,75,-99.99,,,-99.99,,2013-03-18 08:12:00,
2013-03-18 04:22:00,65.0,57.0,30.04,SSW,197,4.0,8.0,75,-99.99,,,-99.99,,2013-03-18 08:22:00,
2013-03-18 04:32:00,65.0,57.0,30.04,SSW,197,4.0,8.0,75,-99.99,,,-99.99,,2013-03-18 08:32:00,
2013-03-18 04:43:00,64.0,58.0,30.04,South,191,4.0,5.0,78,-99.99,,,-99.99,,2013-03-18 08:43:00,
2013-03-18 04:53:00,64.0,58.0,30.04,South,191,4.0,5.0,78,-99.99,,,-99.99,,2013-03-18 08:53:00,
2013-03-18 05:02:00,64.0,57.0,30.03,South,171,3.0,4.0,78,-99.99,,,-99.99,,2013-03-18 09:02:00,
2013-03-18 05:12:00,64.0,57.0,30.03,South,171,3.0,4.0,78,-99.99,,,-99.99,,2013-03-18 09:12:00,
2013-03-18 05:22:00,64.0,57.0,30.03,South,171,3.0,4.0,78,-99.99,,,-99.99,,2013-03-18 09:22:00,
2013-03-18 05:33:00,63.0,57.0,30.04,SSE,164,2.0,2.0,80,-99.99,,,-99.99,,2013-03-18 09:33:00,
2013-03-18 05:43:00,62.0,57.0,30.04,SE,132,3.0,5.0,82,-99.99,,,-99.99,,2013-03-18 09:43:00,
2013-03-18 05:53:00,62.0,57.0,30.04,SE,132,3.0,5.0,82,-99.99,,,-99.99,,2013-03-18 09:53:00,
2013-03-18 06:04:00,63.0,58.0,30.04,SSE,163,5.0,7.0,82,-99.99,,,-99.99,,2013-03-18 10:04:00,
2013-03-18 06:13:00,63.0,58.0,30.04,SSE,163,5.0,7.0,82,-99.99,,,-99.99,,2013-03-18 10:13:00,
2013-03-18 06:23:00,62.0,58.0,30.04,SE,136,5.0,9.0,85,-99.99,,,-99.99,,2013-03-18 10:23:00,
2013-03-18 06:33:00,61.0,58.0,30.04,SE,128,3.0,5.0,87,-99.99,,,-99.99,,2013-03-18 10:33:00,
2013-03-18 06:42:00,61.0,58.0,30.04,SE,128,3.0,5.0,87,-99.99,,,-99.99,,2013-03-18 10:42:00,
2013-03-18 06:53:00,61.0,57.0,30.04,SE,143,3.0,5.0,88,-99.99,,,-99.99,,2013-03-18 10:53:00,
2013-03-18 07:03:00,60.0,57.0,30.04,SE,137,4.0,6.0,89,-99.99,,,-99.99,,2013-03-18 11:03:00,
2013-03-18 07:13:00,60.0,57.0,30.04,SE,137,4.0,6.0,89,-99.99,,,-99.99,,2013-03-18 11:13:00,
2013-03-18 07:22:00,60.0,57.0,30.05,SSE,150,4.0,5.0,89,-99.99,,,-99.99,,2013-03-18 11:22:00,
2013-03-18 07:32:00,60.0,57.0,30.05,SSE,150,4.0,5.0,89,-99.99,,,-99.99,,2013-03-18 11:32:00,
2013-03-18 07:42:00,60.0,57.0,30.06,SSE,164,4.0,5.0,89,-99.99,,,-99.99,,2013-03-18 11:42:00,
2013-03-18 07:53:00,60.0,57.0,30.06,SSE,164,4.0,5.0,89,-99.99,,,-99.99,,2013-03-18 11:53:00,
2013-03-18 08:03:00,60.0,57.0,30.06,SSE,163,4.0,5.0,90,-99.99,,,-99.99,,2013-03-18 12:03:00,
2013-03-18 08:13:00,60.0,57.0,30.06,SSE,163,4.0,5.0,90,-99.99,,,-99.99,,2013-03-18 12:13:00,
2013-03-18 08:22:00,60.0,57.0,30.06,SSE,160,4.0,6.0,90,-99.99,,,-99.99,,2013-03-18 12:22:00,
2013-03-18 08:32:00,60.0,57.0,30.06,SSE,160,3.0,5.0,90,-99.99,,,-99.99,,2013-03-18 12:32:00,
2013-03-18 08:43:00,60.0,57.0,30.06,SSE,160,3.0,5.0,90,-99.99,,,-99.99,,2013-03-18 12:43:00,
2013-03-18 08:52:00,61.0,59.0,30.07,SSE,147,2.0,3.0,90,-99.99,,,-99.99,,2013-03-18 12:52:00,
2013-03-18 09:03:00,63.0,59.0,30.07,SSE,152,3.0,3.0,89,-99.99,,,-99.99,,2013-03-18 13:03:00,
2013-03-18 09:12:00,63.0,59.0,30.07,SSE,152,3.0,3.0,89,-99.99,,,-99.99,,2013-03-18 13:12:00,
2013-03-18 09:22:00,64.0,60.0,30.07,SSE,151,3.0,5.0,88,-99.99,,,-99.99,,2013-03-18 13:22:00,
2013-03-18 09:33:00,65.0,61.0,30.07,SE,140,5.0,8.0,86,-99.99,,,-99.99,,2013-03-18 13:33:00,
2013-03-18 09:42:00,65.0,61.0,30.07,SE,140,5.0,8.0,86,-99.99,,,-99.99,,2013-03-18 13:42:00,
2013-03-18 09:52:00,66.0,61.0,30.06,SSE,147,7.0,14.0,82,-99.99,,,-99.99,,2013-03-18 13:52:00,
2013-03-18 10:03:00,68.0,61.0,30.06,SSE,157,9.0,14.0,80,-99.99,,,-99.99,,2013-03-18 14:03:00,
2013-03-18 10:12:00,68.0,61.0,30.06,SSE,157,9.0,14.0,80,-99.99,,,-99.99,,2013-03-18 14:12:00,
2013-03-18 10:22:00,69.0,62.0,30.06,SSE,160,8.0,12.0,77,-99.99,,,-99.99,,2013-03-18 14:22:00,
2013-03-18 10:32:00,69.0,62.0,30.06,SSE,160,8.0,12.0,77,-99.99,,,-99.99,,2013-03-18 14:32:00,
2013-03-18 10:42:00,69.0,62.0,30.06,SSE,164,8.0,12.0,76,-99.99,,,-99.99,,2013-03-18 14:42:00,
2013-03-18 10:52:00,71.0,62.0,30.07,SSE,164,9.0,14.0,73,-99.99,,,-99.99,,2013-03-18 14:52:00,
2013-03-18 11:02:00,71.0,62.0,30.07,SSE,166,11.0,18.0,72,-99.99,,,-99.99,,2013-03-18 15:02:00,
2013-03-18 11:12:00,72.0,62.0,30.06,SSE,163,10.0,16.0,71,-99.99,,,-99.99,,2013-03-18 15:12:00,
2013-03-18 11:22:00,72.0,62.0,30.06,SSE,163,10.0,16.0,71,-99.99,,,-99.99,,2013-03-18 15:22:00,
2013-03-18 11:33:00,73.0,63.0,30.06,SSE,163,8.0,15.0,69,-99.99,,,-99.99,,2013-03-18 15:33:00,
2013-03-18 11:43:00,75.0,63.0,30.07,South,182,7.0,15.0,66,-99.99,,,-99.99,,2013-03-18 15:43:00,
2013-03-18 11:52:00,75.0,63.0,30.07,South,182,7.0,15.0,66,-99.99,,,-99.99,,2013-03-18 15:52:00,
2013-03-18 12:03:00,76.0,63.0,30.07,South,188,9.0,14.0,63,-99.99,,,-99.99,,2013-03-18 16:03:00,
2013-03-18 12:12:00,76.0,63.0,30.07,South,188,9.0,14.0,63,-99.99,,,-99.99,,2013-03-18 16:12:00,
2013-03-18 12:23:00,76.0,63.0,30.07,South,188,9.0,14.0,63,-99.99,,,-99.99,,2013-03-18 16:23:00,
2013-03-18 12:33:00,77.0,62.0,30.07,SSW,193,10.0,18.0,60,-99.99,,,-99.99,,2013-03-18 16:33:00,
2013-03-18 12:42:00,78.0,62.0,30.07,South,191,10.0,16.0,59,-99.99,,,-99.99,,2013-03-18 16:42:00,
2013-03-18 12:53:00,78.0,62.0,30.07,South,175,10.0,13.0,57,-99.99,,,-99.99,,2013-03-18 16:53:00,
2013-03-18 13:03:00,77.0,62.0,30.06,South,177,11.0,14.0,58,-99.99,,,-99.99,,2013-03-18 17:03:00,
2013-03-18 13:12:00,77.0,62.0,30.06,South,177,11.0,14.0,58,-99.99,,,-99.99,,2013-03-18 17:12:00,
2013-03-18 13:22:00,78.0,62.0,30.06,South,173,10.0,14.0,58,-99.99,,,-99.99,,2013-03-18 17:22:00,
2013-03-18 13:32:00,78.0,62.0,30.06,South,173,10.0,14.0,58,-99.99,,,-99.99,,2013-03-18 17:32:00,
2013-03-18 13:42:00,77.0,62.0,30.05,SSE,168,9.0,13.0,59,-99.99,,,-99.99,,2013-03-18 17:42:00,
2013-03-18 13:52:00,78.0,62.0,30.05,South,176,8.0,12.0,58,-99.99,,,-99.99,,2013-03-18 17:52:00,
2013-03-18 14:02:00,78.0,62.0,30.05,South,173,8.0,12.0,58,-99.99,,,-99.99,,2013-03-18 18:02:00,
2013-03-18 14:13:00,78.0,62.0,30.05,South,173,8.0,12.0,58,-99.99,,,-99.99,,2013-03-18 18:13:00,
2013-03-18 14:22:00,77.0,62.0,30.04,South,170,8.0,11.0,58,-99.99,,,-99.99,,2013-03-18 18:22:00,
2013-03-18 14:32:00,77.0,62.0,30.04,South,170,8.0,11.0,58,-99.99,,,-99.99,,2013-03-18 18:32:00,
2013-03-18 14:42:00,78.0,62.0,30.04,South,178,6.0,9.0,58,-99.99,,,-99.99,,2013-03-18 18:42:00,
2013-03-18 14:52:00,78.0,62.0,30.03,SSW,204,6.0,10.0,57,-99.99,,,-99.99,,2013-03-18 18:52:00,
2013-03-18 15:03:00,78.0,62.0,30.03,SSW,197,6.0,9.0,57,-99.99,,,-99.99,,2013-03-18 19:03:00,
2013-03-18 15:12:00,78.0,62.0,30.03,SSW,197,6.0,9.0,57,-99.99,,,-99.99,,2013-03-18 19:12:00,
2013-03-18 15:22:00,78.0,62.0,30.02,SSW,205,6.0,10.0,57,-99.99,,,-99.99,,2013-03-18 19:22:00,
2013-03-18 15:33:00,78.0,62.0,30.02,SW,215,6.0,11.0,57,-99.99,,,-99.99,,2013-03-18 19:33:00,
2013-03-18 15:42:00,78.0,62.0,30.02,SW,215,7.0,11.0,56,-99.99,,,-99.99,,2013-03-18 19:42:00,
2013-03-18 15:52:00,79.0,61.0,30.00,SW,219,7.0,10.0,54,-99.99,,,-99.99,,2013-03-18 19:52:00,
2013-03-18 16:03:00,79.0,61.0,29.99,SSW,207,7.0,10.0,54,-99.99,,,-99.99,,2013-03-18 20:03:00,
2013-03-18 16:12:00,78.0,61.0,29.98,SSW,206,6.0,11.0,56,-99.99,,,-99.99,,2013-03-18 20:12:00,
2013-03-18 16:23:00,78.0,61.0,29.98,SSW,206,6.0,11.0,56,-99.99,,,-99.99,,2013-03-18 20:23:00,
2013-03-18 16:33:00,78.0,61.0,29.98,SSW,206,6.0,11.0,56,-99.99,,,-99.99,,2013-03-18 20:33:00,
2013-03-18 16:42:00,78.0,62.0,29.97,SSW,199,6.0,10.0,57,-99.99,,,-99.99,,2013-03-18 20:42:00,
2013-03-18 16:53:00,77.0,61.0,29.97,SSW,207,5.0,8.0,56,-99.99,,,-99.99,,2013-03-18 20:53:00,
2013-03-18 17:02:00,77.0,61.0,29.95,SSW,195,4.0,8.0,56,-99.99,,,-99.99,,2013-03-18 21:02:00,
2013-03-18 17:12:00,78.0,61.0,29.96,SW,220,3.0,5.0,56,-99.99,,,-99.99,,2013-03-18 21:12:00,
2013-03-18 17:23:00,78.0,61.0,29.96,SW,220,3.0,5.0,56,-99.99,,,-99.99,,2013-03-18 21:23:00,
2013-03-18 17:33:00,78.0,61.0,29.96,SW,220,3.0,5.0,56,-99.99,,,-99.99,,2013-03-18 21:33:00,
2013-03-18 17:43:00,77.0,61.0,29.96,SW,228,3.0,6.0,57,-99.99,,,-99.99,,2013-03-18 21:43:00,
2013-03-18 17:53:00,76.0,63.0,29.97,SSW,192,3.0,5.0,62,-99.99,,,-99.99,,2013-03-18 21:53:00,
2013-03-18 18:03:00,74.0,64.0,29.96,SW,217,7.0,11.0,71,-99.99,,,-99.99,,2013-03-18 22:03:00,
2013-03-18 18:13:00,74.0,64.0,29.96,SW,217,7.0,11.0,71,-99.99,,,-99.99,,2013-03-18 22:13:00,
2013-03-18 18:23:00,73.0,64.0,29.96,WSW,239,6.0,9.0,74,-99.99,,,-99.99,,2013-03-18 22:23:00,
2013-03-18 18:33:00,73.0,64.0,29.96,WSW,239,6.0,9.0,74,-99.99,,,-99.99,,2013-03-18 22:33:00,
2013-03-18 18:42:00,72.0,64.0,29.97,WSW,238,9.0,13.0,75,-99.99,,,-99.99,,2013-03-18 22:42:00,
2013-03-18 18:53:00,72.0,64.0,29.98,WSW,237,6.0,10.0,75,-99.99,,,-99.99,,2013-03-18 22:53:00,
2013-03-18 19:03:00,71.0,62.0,29.98,SW,228,6.0,10.0,73,-99.99,,,-99.99,,2013-03-18 23:03:00,
2013-03-18 19:13:00,71.0,62.0,29.98,SW,228,6.0,10.0,73,-99.99,,,-99.99,,2013-03-18 23:13:00,
2013-03-18 19:23:00,71.0,63.0,29.96,SSE,167,8.0,12.0,74,-99.99,,,-99.99,,2013-03-18 23:23:00,
2013-03-18 19:33:00,71.0,63.0,29.96,SSE,167,8.0,12.0,74,-99.99,,,-99.99,,2013-03-18 23:33:00,
2013-03-18 19:42:00,71.0,63.0,29.96,SSW,193,5.0,8.0,75,-99.99,,,-99.99,,2013-03-18 23:42:00,
2013-03-18 19:53:00,71.0,63.0,29.96,SSW,192,5.0,9.0,75,-99.99,,,-99.99,,2013-03-18 23:53:00,
2013-03-18 20:03:00,70.0,63.0,29.96,WSW,241,5.0,9.0,78,-99.99,,,-99.99,,2013-03-19 00:03:00,
2013-03-18 20:12:00,70.0,63.0,29.96,WSW,241,5.0,9.0,78,-99.99,,,-99.99,,2013-03-19 00:12:00,
2013-03-18 20:23:00,69.0,63.0,29.97,NW,319,3.0,4.0,80,-99.99,,,-99.99,,2013-03-19 00:23:00,
2013-03-18 20:32:00,69.0,63.0,29.97,South,187,4.0,6.0,81,-99.99,,,-99.99,,2013-03-19 00:32:00,
2013-03-18 20:42:00,69.0,63.0,29.97,South,187,4.0,6.0,81,-99.99,,,-99.99,,2013-03-19 00:42:00,
2013-03-18 20:52:00,68.0,63.0,29.98,SW,227,4.0,7.0,82,-99.99,,,-99.99,,2013-03-19 00:52:00,
2013-03-18 21:02:00,68.0,63.0,29.99,West,268,4.0,5.0,83,-99.99,,,-99.99,,2013-03-19 01:02:00,
2013-03-18 21:12:00,68.0,63.0,29.99,West,268,4.0,5.0,83,-99.99,,,-99.99,,2013-03-19 01:12:00,
2013-03-18 21:23:00,68.0,63.0,29.99,SW,224,4.0,6.0,83,-99.99,,,-99.99,,2013-03-19 01:23:00,
2013-03-18 21:33:00,68.0,63.0,29.99,SW,224,4.0,6.0,83,-99.99,,,-99.99,,2013-03-19 01:33:00,
2013-03-18 21:43:00,68.0,63.0,29.99,SSW,213,4.0,8.0,84,-99.99,,,-99.99,,2013-03-19 01:43:00,
2013-03-18 21:53:00,68.0,64.0,29.98,South,188,7.0,10.0,84,-99.99,,,-99.99,,2013-03-19 01:53:00,
2013-03-18 22:03:00,69.0,64.0,29.98,South,185,6.0,10.0,84,-99.99,,,-99.99,,2013-03-19 02:03:00,
2013-03-18 22:13:00,69.0,64.0,29.98,South,185,6.0,10.0,84,-99.99,,,-99.99,,2013-03-19 02:13:00,
2013-03-18 22:23:00,69.0,64.0,29.97,South,189,8.0,12.0,85,-99.99,,,-99.99,,2013-03-19 02:23:00,
2013-03-18 22:33:00,69.0,64.0,29.97,South,189,8.0,12.0,85,-99.99,,,-99.99,,2013-03-19 02:33:00,
2013-03-18 22:42:00,69.0,65.0,29.97,South,191,9.0,14.0,86,-99.99,,,-99.99,,2013-03-19 02:42:00,
2013-03-18 22:53:00,69.0,64.0,29.95,South,182,14.0,23.0,86,-99.99,,,-99.99,,2013-03-19 02:53:00,
2013-03-18 23:02:00,68.0,64.0,29.93,South,180,15.0,22.0,86,-99.99,,,-99.99,,2013-03-19 03:02:00,
2013-03-18 23:12:00,68.0,64.0,29.93,South,180,15.0,22.0,86,-99.99,,,-99.99,,2013-03-19 03:12:00,
2013-03-18 23:22:00,68.0,64.0,29.93,South,180,15.0,22.0,86,-99.99,,,-99.99,,2013-03-19 03:22:00,
2013-03-18 23:33:00,68.0,64.0,29.94,South,188,12.0,21.0,86,-99.99,,,-99.99,,2013-03-19 03:33:00,
2013-03-18 23:43:00,68.0,64.0,29.98,West,276,5.0,10.0,85,-99.99,,,-99.99,,2013-03-19 03:43:00,
2013-03-18 23:54:00,68.0,64.0,29.98,West,276,5.0,10.0,85,-99.99,,,-99.99,,2013-03-19 03:54:00,